Weather History for KNZY - February, 2013

Change the Weather History Date:

Wednesday, February 20, 2013

  Actual Average Record
Temperature  
Mean Temperature 52 °F -  
Max Temperature 57 °F 61 °F 77 °F (2014)
Min Temperature 48 °F 48 °F 48 °F (2002)
Degree Days  
Heating Degree Days 12    
Growing Degree Days 2 (Base 50)    
Moisture  
Dew Point 37 °F    
Average Humidity 55    
Maximum Humidity 72    
Minimum Humidity 39    
Precipitation  
Precipitation 0.00 in - - ()
Sea Level Pressure  
Sea Level Pressure 29.84 in    
Wind  
Wind Speed 19 mph (WNW)    
Max Wind Speed 26 mph    
Max Gust Speed 37 mph    
Visibility 10 miles    
Events Rain    
Averages and records for this station are not official NWS values.
T = Trace of Precipitation, MM = Missing Value Source: NWS Daily Summary

Daily Weather History Graph

Daily Weather History Graph

Search for Another Location

Airport or City:

Trip Planner

Search our weather history database for the weather conditions in past years. The results will help you decide how hot, cold, wet, or windy it might be!

Date:

Astronomy

Feb. 20, 2013 Rise Set
Actual Time 6:26 AM PST 5:39 PM PST
Civil Twilight 6:01 AM PST 6:04 PM PST
Nautical Twilight 5:32 AM PST 6:32 PM PST
Astronomical Twilight 5:04 AM PST 7:01 PM PST
Moon 1:13 PM PST (2/20) 2:40 AM PST (2/20)
Length of Visible Light 12h 02m
Length of Day
11h 12m
Waxing Gibbous, 77% of the Moon is Illuminated
Feb 20
Waxing Gibbous
Feb 25
Full
Mar 4
Last Quarter
Mar 11
New
Mar 19
First Quarter

Hourly Weather History & Observations

Time (PST) Temp. Dew Point Humidity Pressure Visibility Wind Dir Wind Speed Gust Speed Precip Events Conditions
12:11 AM 53.6 °F 44.6 °F 72% 29.75 in 7.0 mi West 18.4 mph 27.6 mph 0.00 in Rain Light Rain
12:20 AM 53.6 °F 44.6 °F 72% 29.75 in 7.0 mi West 18.4 mph 31.1 mph 0.00 in Rain Light Rain
12:52 AM 53.1 °F 43.0 °F 69% 29.75 in 10.0 mi WNW 25.3 mph 33.4 mph 0.00 in   Overcast
1:03 AM 53.6 °F 41.0 °F 62% 29.75 in 9.0 mi WNW 26.5 mph 33.4 mph 0.00 in Rain Light Rain
1:18 AM 53.6 °F 39.2 °F 58% 29.76 in 10.0 mi WNW 24.2 mph 34.5 mph 0.00 in   Overcast
1:52 AM 53.1 °F 39.9 °F 61% 29.76 in 10.0 mi West 21.9 mph 33.4 mph 0.00 in   Mostly Cloudy
2:52 AM 52.0 °F 37.9 °F 59% 29.76 in 10.0 mi WNW 25.3 mph 33.4 mph N/A   Mostly Cloudy
3:52 AM 52.0 °F 37.0 °F 57% 29.75 in 10.0 mi WNW 25.3 mph 31.1 mph N/A   Mostly Cloudy
4:52 AM 53.1 °F 36.0 °F 52% 29.77 in 10.0 mi West 24.2 mph 31.1 mph N/A   Mostly Cloudy
5:21 AM 53.6 °F 37.4 °F 54% 29.76 in 10.0 mi West 25.3 mph 31.1 mph 0.00 in Rain Light Rain
5:27 AM 53.6 °F 35.6 °F 51% 29.76 in 10.0 mi West 25.3 mph 34.5 mph 0.00 in   Mostly Cloudy
5:38 AM 53.6 °F 37.4 °F 54% 29.76 in 9.0 mi West 24.2 mph 33.4 mph 0.00 in Rain Light Rain
5:52 AM 53.1 °F 37.0 °F 55% 29.76 in 10.0 mi West 24.2 mph 34.5 mph 0.00 in   Overcast
6:52 AM 53.1 °F 37.9 °F 57% 29.77 in 9.0 mi West 21.9 mph 31.1 mph 0.00 in Rain Light Rain
7:15 AM 51.8 °F 37.4 °F 58% 29.78 in 10.0 mi WNW 24.2 mph 36.8 mph 0.00 in   Mostly Cloudy
7:40 AM 53.6 °F 37.4 °F 54% 29.79 in 10.0 mi WNW 23.0 mph 28.8 mph 0.00 in Rain Light Rain
7:52 AM 53.1 °F 37.0 °F 55% 29.79 in 10.0 mi WNW 18.4 mph 31.1 mph 0.00 in   Mostly Cloudy
8:44 AM 53.6 °F 35.6 °F 51% 29.81 in 10.0 mi WNW 23.0 mph 32.2 mph 0.00 in Rain Light Rain
8:52 AM 55.0 °F 35.1 °F 47% 29.82 in 10.0 mi WNW 20.7 mph 32.2 mph 0.00 in   Mostly Cloudy
9:52 AM 55.9 °F 30.9 °F 39% 29.84 in 10.0 mi NNW 21.9 mph - N/A   Scattered Clouds
10:52 AM 57.0 °F 32.0 °F 39% 29.87 in 10.0 mi NW 20.7 mph 28.8 mph N/A   Scattered Clouds
11:52 AM 57.0 °F 33.1 °F 40% 29.88 in 10.0 mi WNW 17.3 mph - N/A   Scattered Clouds
12:52 PM 57.9 °F 34.0 °F 41% 29.88 in 10.0 mi WNW 12.7 mph 20.7 mph N/A   Scattered Clouds
1:52 PM 57.9 °F 36.0 °F 44% 29.88 in 10.0 mi WNW 10.4 mph - N/A   Scattered Clouds
2:52 PM 57.9 °F 34.0 °F 41% 29.90 in 10.0 mi West 10.4 mph - N/A   Scattered Clouds
3:52 PM 57.9 °F 33.1 °F 39% 29.91 in 10.0 mi West 6.9 mph - N/A   Partly Cloudy
4:52 PM 55.9 °F 37.0 °F 49% 29.93 in 10.0 mi SW 5.8 mph - N/A   Partly Cloudy
5:52 PM 54.0 °F 37.9 °F 55% 29.96 in 10.0 mi Calm Calm - N/A   Scattered Clouds
6:52 PM 52.0 °F 37.9 °F 59% 29.97 in 10.0 mi East 3.5 mph - N/A   Scattered Clouds
7:52 PM 51.1 °F 37.9 °F 61% 29.98 in 8.0 mi ESE 5.8 mph - N/A   Scattered Clouds
8:52 PM 52.0 °F 39.9 °F 63% 29.99 in 8.0 mi ESE 6.9 mph - N/A   Partly Cloudy
9:52 PM 51.1 °F 39.0 °F 63% 30.01 in 9.0 mi East 6.9 mph - N/A   Partly Cloudy
10:52 PM 48.9 °F 37.9 °F 66% 30.02 in 10.0 mi East 6.9 mph - N/A   Partly Cloudy
11:52 PM 50.0 °F 39.0 °F 66% 30.03 in 8.0 mi ESE 11.5 mph - N/A   Scattered Clouds